Darstellungsparameter: Aktuell verwendete Einstellungen:
Skalierung der Graphiken ... ?
xyx+y,   Skalierungsfaktor:      Skalierung: Modus: x, Faktor: 1
Darstellungszeitraum ... ?
Vom - - bis: - -   Zeitraum: 24.04.2019 - 24.04.2019
Min/Max/Avg-Anzeige ... ?
Zeige MMA aktuell
Zeige MMA Monat
Zeige MMA alles
Zeige --A aktuell
Zeige --A Monat
Zeige --A alles
Keine MMA-Anzeige
MMA:
Keine MMA-Graphiken
MMA-Basis: 24.04.2019 - 24.04.2019
Quicknavigation für Darstellung... ?
Tage:      1T, 2T, 3T, 5T -1T -2T -3T -5T +1T +2T +3T +5T
Wochen: 1W, 2W, 3W -1W -2W -3W +1W +2W +3W
Monate: 1M, 3M, 6M -1M -3M -6M +1M +3M +6M
Jahre:    1J, 3J, 5J, 10J -1J -3J -5J -10J +1J +3J +5J +10J
Nutze für die Darstellung ... ?
Originaldaten oder Mittelwerte auf ...
Stundenbasis Tagesbasis Wochenbasis
Monatsbasis Jahresbasis      Datenbasis: Original-Daten
Darstellen als:
Statistik (Auto) Statistik J:M      Darstellung:
Zur Graphik,    zurück zur Übersicht aller Sensoren.
 
Tabellarische Datenbersicht: ?
 
Sensor: Nr:Datum:Temp:Feuchte:Taupunkt:
Aussen-T/F 1 24-04-2019 00:00:00 14.8 C 74 % 10.22 C
2 24-04-2019 00:05:00 14.8 C 74 % 10.22 C
3 24-04-2019 00:10:00 14.7 C 75 % 10.32 C
4 24-04-2019 00:15:00 14.6 C 75 % 10.22 C
5 24-04-2019 00:20:00 14.6 C 75 % 10.22 C
6 24-04-2019 00:25:00 14.5 C 76 % 10.32 C
7 24-04-2019 00:30:00 14.4 C 76 % 10.23 C
8 24-04-2019 00:35:00 14.4 C 76 % 10.23 C
9 24-04-2019 00:40:00 14.3 C 75 % 9.93 C
10 24-04-2019 00:45:00 14.2 C 75 % 9.84 C
11 24-04-2019 00:50:00 14 C 75 % 9.64 C
12 24-04-2019 00:55:00 13.8 C 76 % 9.65 C
13 24-04-2019 01:00:00 13.6 C 76 % 9.45 C
14 24-04-2019 01:05:00 13.3 C 76 % 9.16 C
15 24-04-2019 01:10:00 13.1 C 77 % 9.16 C
16 24-04-2019 01:15:00 12.9 C 77 % 8.97 C
17 24-04-2019 01:20:00 12.8 C 78 % 9.06 C
18 24-04-2019 01:25:00 12.7 C 78 % 8.97 C
19 24-04-2019 01:30:00 12.6 C 79 % 9.06 C
20 24-04-2019 01:35:00 12.4 C 79 % 8.86 C
21 24-04-2019 01:40:00 12.3 C 79 % 8.77 C
22 24-04-2019 01:45:00 12.2 C 80 % 8.86 C
23 24-04-2019 01:50:00 12.1 C 81 % 8.94 C
24 24-04-2019 01:55:00 11.9 C 81 % 8.75 C
25 24-04-2019 02:00:00 11.8 C 81 % 8.65 C
Sensor: Nr:Datum:Temp:Feuchte:Taupunkt:
Aussen-T/F 26 24-04-2019 02:05:00 11.7 C 81 % 8.55 C
27 24-04-2019 02:10:00 11.6 C 81 % 8.45 C
28 24-04-2019 02:15:00 11.6 C 82 % 8.64 C
29 24-04-2019 02:20:00 11.4 C 83 % 8.62 C
30 24-04-2019 02:25:00 11.3 C 83 % 8.52 C
31 24-04-2019 02:30:00 11.3 C 84 % 8.7 C
32 24-04-2019 02:35:00 11.2 C 84 % 8.6 C
33 24-04-2019 02:40:00 11.2 C 84 % 8.6 C
34 24-04-2019 02:45:00 11.1 C 84 % 8.5 C
35 24-04-2019 02:50:00 10.9 C 84 % 8.31 C
36 24-04-2019 02:55:00 10.8 C 85 % 8.38 C
37 24-04-2019 03:00:00 10.8 C 85 % 8.38 C
38 24-04-2019 03:05:00 10.7 C 85 % 8.28 C
39 24-04-2019 03:10:00 10.6 C 86 % 8.36 C
40 24-04-2019 03:15:00 10.5 C 86 % 8.26 C
41 24-04-2019 03:20:00 10.4 C 86 % 8.16 C
42 24-04-2019 03:25:00 10.3 C 86 % 8.06 C
43 24-04-2019 03:30:00 10.3 C 87 % 8.23 C
44 24-04-2019 03:35:00 10.3 C 87 % 8.23 C
45 24-04-2019 03:40:00 10.3 C 87 % 8.23 C
46 24-04-2019 03:45:00 10.2 C 87 % 8.14 C
47 24-04-2019 03:50:00 10.2 C 88 % 8.3 C
48 24-04-2019 03:55:00 10.1 C 88 % 8.21 C
49 24-04-2019 04:00:00 10.1 C 88 % 8.21 C
50 24-04-2019 04:05:00 10 C 88 % 8.11 C
Sensor: Nr:Datum:Temp:Feuchte:Taupunkt:
Aussen-T/F 51 24-04-2019 04:10:00 9.9 C 88 % 8.01 C
52 24-04-2019 04:15:00 9.9 C 89 % 8.17 C
53 24-04-2019 04:20:00 9.9 C 89 % 8.17 C
54 24-04-2019 04:25:00 9.9 C 89 % 8.17 C
55 24-04-2019 04:30:00 9.9 C 89 % 8.17 C
56 24-04-2019 04:35:00 9.8 C 89 % 8.08 C
57 24-04-2019 04:40:00 9.8 C 89 % 8.08 C
58 24-04-2019 04:45:00 9.8 C 89 % 8.08 C
59 24-04-2019 04:50:00 9.9 C 89 % 8.17 C
60 24-04-2019 04:55:00 9.8 C 89 % 8.08 C
61 24-04-2019 05:00:00 9.7 C 89 % 7.98 C
62 24-04-2019 05:05:00 9.6 C 89 % 7.88 C
63 24-04-2019 05:10:00 9.5 C 89 % 7.78 C
64 24-04-2019 05:15:00 9.4 C 90 % 7.85 C
65 24-04-2019 05:20:00 9.4 C 90 % 7.85 C
66 24-04-2019 05:25:00 9.3 C 90 % 7.75 C
67 24-04-2019 05:30:00 9.3 C 90 % 7.75 C
68 24-04-2019 05:35:00 9.2 C 90 % 7.65 C
69 24-04-2019 05:40:00 9.2 C 91 % 7.81 C
70 24-04-2019 05:45:00 9.2 C 91 % 7.81 C
71 24-04-2019 05:50:00 9.2 C 91 % 7.81 C
72 24-04-2019 05:55:00 9.2 C 91 % 7.81 C
73 24-04-2019 06:00:00 9.2 C 91 % 7.81 C
74 24-04-2019 06:05:00 9.3 C 92 % 8.07 C
75 24-04-2019 06:10:00 9.3 C 92 % 8.07 C
Sensor: Nr:Datum:Temp:Feuchte:Taupunkt:
Aussen-T/F 76 24-04-2019 06:15:00 9.2 C 91 % 7.81 C
77 24-04-2019 06:20:00 9.2 C 91 % 7.81 C
78 24-04-2019 06:25:00 9.1 C 91 % 7.71 C
79 24-04-2019 06:30:00 9.1 C 92 % 7.87 C
80 24-04-2019 06:35:00 9.1 C 92 % 7.87 C
81 24-04-2019 06:40:00 9 C 92 % 7.77 C
82 24-04-2019 06:45:00 8.9 C 92 % 7.67 C
83 24-04-2019 06:50:00 8.9 C 92 % 7.67 C
84 24-04-2019 06:55:00 8.9 C 92 % 7.67 C
85 24-04-2019 07:00:00 8.9 C 92 % 7.67 C
86 24-04-2019 07:05:00 9 C 93 % 7.93 C
87 24-04-2019 07:10:00 9.2 C 93 % 8.13 C
88 24-04-2019 07:15:00 9.3 C 93 % 8.23 C
89 24-04-2019 07:20:00 9.4 C 93 % 8.33 C
90 24-04-2019 07:25:00 9.6 C 93 % 8.53 C
91 24-04-2019 07:30:00 9.7 C 93 % 8.62 C
92 24-04-2019 07:35:00 9.8 C 93 % 8.72 C
93 24-04-2019 07:40:00 10 C 93 % 8.92 C
94 24-04-2019 07:45:00 10.2 C 92 % 8.96 C
95 24-04-2019 07:50:00 10.3 C 91 % 8.9 C
96 24-04-2019 07:55:00 10.6 C 91 % 9.19 C
97 24-04-2019 08:00:00 10.7 C 90 % 9.13 C
98 24-04-2019 08:05:00 10.9 C 89 % 9.16 C
99 24-04-2019 08:10:00 11.1 C 89 % 9.36 C
100 24-04-2019 08:15:00 11.2 C 88 % 9.29 C
Sensor: Nr:Datum:Temp:Feuchte:Taupunkt:
Aussen-T/F 101 24-04-2019 08:20:00 11.3 C 88 % 9.39 C
102 24-04-2019 08:25:00 11.4 C 87 % 9.32 C
103 24-04-2019 08:30:00 11.6 C 86 % 9.34 C
104 24-04-2019 08:35:00 11.7 C 86 % 9.44 C
105 24-04-2019 08:40:00 11.9 C 85 % 9.46 C
106 24-04-2019 08:45:00 12.2 C 85 % 9.76 C
107 24-04-2019 08:50:00 12.3 C 85 % 9.85 C
108 24-04-2019 08:55:00 12.4 C 85 % 9.95 C
109 24-04-2019 09:00:00 12.6 C 85 % 10.15 C
110 24-04-2019 09:05:00 12.7 C 85 % 10.25 C
111 24-04-2019 09:10:00 12.8 C 84 % 10.17 C
112 24-04-2019 09:15:00 12.9 C 83 % 10.09 C
113 24-04-2019 09:20:00 13.2 C 83 % 10.38 C
114 24-04-2019 09:25:00 13.3 C 83 % 10.48 C
115 24-04-2019 09:30:00 13.4 C 82 % 10.39 C
116 24-04-2019 09:35:00 13.6 C 80 % 10.22 C
117 24-04-2019 09:40:00 13.7 C 80 % 10.32 C
118 24-04-2019 09:45:00 13.9 C 82 % 10.88 C
119 24-04-2019 09:50:00 14.2 C 81 % 10.99 C
120 24-04-2019 09:55:00 14.4 C 80 % 11 C
121 24-04-2019 10:00:00 14.7 C 78 % 10.91 C
122 24-04-2019 10:05:00 14.9 C 77 % 10.91 C
123 24-04-2019 10:10:00 15.2 C 76 % 11 C
124 24-04-2019 10:15:00 15.6 C 75 % 11.19 C
125 24-04-2019 10:20:00 15.8 C 74 % 11.18 C
Sensor: Nr:Datum:Temp:Feuchte:Taupunkt:
Aussen-T/F 126 24-04-2019 10:25:00 16.1 C 74 % 11.47 C
127 24-04-2019 10:30:00 16.4 C 73 % 11.55 C
128 24-04-2019 10:35:00 16.6 C 72 % 11.54 C
129 24-04-2019 10:40:00 16.8 C 71 % 11.52 C
130 24-04-2019 10:45:00 17.1 C 74 % 12.43 C
131 24-04-2019 10:50:00 17.2 C 75 % 12.73 C
132 24-04-2019 10:55:00 17.3 C 72 % 12.21 C
133 24-04-2019 11:00:00 17.4 C 69 % 11.66 C
134 24-04-2019 11:05:00 17.7 C 69 % 11.95 C
135 24-04-2019 11:10:00 17.9 C 71 % 12.57 C
136 24-04-2019 11:15:00 18.2 C 70 % 12.64 C
137 24-04-2019 11:20:00 18.4 C 69 % 12.61 C
138 24-04-2019 11:25:00 18.6 C 69 % 12.8 C
139 24-04-2019 11:30:00 18.7 C 69 % 12.9 C
140 24-04-2019 11:35:00 18.9 C 66 % 12.41 C
141 24-04-2019 11:40:00 19.3 C 63 % 12.09 C
142 24-04-2019 11:45:00 19.7 C 63 % 12.46 C
143 24-04-2019 11:50:00 19.9 C 62 % 12.41 C
144 24-04-2019 11:55:00 20.1 C 61 % 12.35 C
145 24-04-2019 12:00:00 20.3 C 59 % 12.03 C
146 24-04-2019 12:05:00 20.5 C 55 % 11.16 C
147 24-04-2019 12:10:00 20.7 C 59 % 12.41 C
148 24-04-2019 12:15:00 21 C 53 % 11.06 C
149 24-04-2019 12:20:00 21.4 C 51 % 10.85 C
150 24-04-2019 12:25:00 21.8 C 50 % 10.92 C
Sensor: Nr:Datum:Temp:Feuchte:Taupunkt:
Aussen-T/F 151 24-04-2019 12:30:00 21.9 C 46 % 9.77 C
152 24-04-2019 12:35:00 21.9 C 49 % 10.71 C
153 24-04-2019 12:40:00 21.9 C 45 % 9.44 C
154 24-04-2019 12:45:00 21.9 C 46 % 9.77 C
155 24-04-2019 12:50:00 21.9 C 47 % 10.09 C
156 24-04-2019 12:55:00 21.9 C 47 % 10.09 C
157 24-04-2019 13:00:00 22 C 46 % 9.86 C
158 24-04-2019 13:05:00 22 C 46 % 9.86 C
159 24-04-2019 13:10:00 22.1 C 46 % 9.95 C
160 24-04-2019 13:15:00 22.2 C 48 % 10.67 C
161 24-04-2019 13:20:00 22.3 C 46 % 10.13 C
162 24-04-2019 13:25:00 22.4 C 45 % 9.89 C
163 24-04-2019 13:30:00 22.5 C 45 % 9.98 C
164 24-04-2019 13:35:00 22.5 C 45 % 9.98 C
165 24-04-2019 13:40:00 22.5 C 45 % 9.98 C
166 24-04-2019 13:45:00 22.6 C 45 % 10.07 C
167 24-04-2019 13:50:00 22.7 C 46 % 10.49 C
168 24-04-2019 13:55:00 22.8 C 43 % 9.58 C
169 24-04-2019 14:00:00 22.9 C 43 % 9.67 C
170 24-04-2019 14:05:00 23 C 43 % 9.76 C
171 24-04-2019 14:10:00 23.2 C 42 % 9.59 C
172 24-04-2019 14:15:00 23.3 C 42 % 9.68 C
173 24-04-2019 14:20:00 23.3 C 44 % 10.37 C
174 24-04-2019 14:25:00 23.3 C 41 % 9.32 C
175 24-04-2019 14:30:00 23.4 C 46 % 11.13 C
Sensor: Nr:Datum:Temp:Feuchte:Taupunkt:
Aussen-T/F 176 24-04-2019 14:35:00 23.7 C 43 % 10.39 C
177 24-04-2019 14:40:00 23.8 C 42 % 10.12 C
178 24-04-2019 14:45:00 23.8 C 44 % 10.82 C
179 24-04-2019 14:50:00 23.8 C 41 % 9.76 C
180 24-04-2019 14:55:00 23.9 C 42 % 10.21 C
181 24-04-2019 15:00:00 24.1 C 42 % 10.39 C
182 24-04-2019 15:05:00 24.2 C 41 % 10.12 C
183 24-04-2019 15:10:00 24.3 C 41 % 10.21 C
184 24-04-2019 15:15:00 24.4 C 41 % 10.3 C
185 24-04-2019 15:20:00 24.4 C 39 % 9.56 C
186 24-04-2019 15:25:00 24.6 C 41 % 10.48 C
187 24-04-2019 15:30:00 24.8 C 40 % 10.29 C
188 24-04-2019 15:35:00 25.2 C 37 % 9.48 C
189 24-04-2019 15:40:00 25.3 C 38 % 9.97 C
190 24-04-2019 15:45:00 25.3 C 36 % 9.16 C
191 24-04-2019 15:50:00 25.4 C 36 % 9.25 C
192 24-04-2019 15:55:00 25.7 C 36 % 9.52 C
193 24-04-2019 16:00:00 25.8 C 37 % 10.01 C
194 24-04-2019 16:05:00 26 C 36 % 9.78 C
195 24-04-2019 16:10:00 25.7 C 35 % 9.1 C
196 24-04-2019 16:15:00 25.3 C 37 % 9.57 C
197 24-04-2019 16:20:00 25.1 C 39 % 10.18 C
198 24-04-2019 16:25:00 24.9 C 43 % 11.47 C
199 24-04-2019 16:30:00 24.8 C 40 % 10.29 C
200 24-04-2019 16:35:00 24.7 C 40 % 10.2 C
Sensor: Nr:Datum:Temp:Feuchte:Taupunkt:
Aussen-T/F 201 24-04-2019 16:40:00 24.6 C 41 % 10.48 C
202 24-04-2019 16:45:00 24.7 C 43 % 11.29 C
203 24-04-2019 16:50:00 25.1 C 40 % 10.56 C
204 24-04-2019 16:55:00 25.8 C 40 % 11.18 C
205 24-04-2019 17:00:00 26.3 C 37 % 10.46 C
206 24-04-2019 17:05:00 26.6 C 37 % 10.72 C
207 24-04-2019 17:10:00 26.5 C 38 % 11.03 C
208 24-04-2019 17:15:00 26.2 C 40 % 11.54 C
209 24-04-2019 17:20:00 25.9 C 41 % 11.64 C
210 24-04-2019 17:25:00 25.8 C 41 % 11.56 C
211 24-04-2019 17:30:00 25.7 C 42 % 11.83 C
212 24-04-2019 17:35:00 25.5 C 42 % 11.65 C
213 24-04-2019 17:40:00 25.3 C 42 % 11.47 C
214 24-04-2019 17:45:00 24.9 C 41 % 10.75 C
215 24-04-2019 17:50:00 24.8 C 46 % 12.4 C
216 24-04-2019 17:55:00 24.6 C 44 % 11.54 C
217 24-04-2019 18:00:00 24.4 C 43 % 11.02 C
218 24-04-2019 18:05:00 24.1 C 46 % 11.76 C
219 24-04-2019 18:10:00 23.8 C 47 % 11.82 C
220 24-04-2019 18:15:00 23.6 C 48 % 11.95 C
221 24-04-2019 18:20:00 22.5 C 47 % 10.63 C
222 24-04-2019 18:25:00 19.8 C 54 % 10.23 C
223 24-04-2019 18:30:00 18.2 C 59 % 10.06 C
224 24-04-2019 18:35:00 17.4 C 63 % 10.29 C
225 24-04-2019 18:40:00 16.8 C 65 % 10.19 C
Sensor: Nr:Datum:Temp:Feuchte:Taupunkt:
Aussen-T/F 226 24-04-2019 18:45:00 16.4 C 68 % 10.48 C
227 24-04-2019 18:50:00 16.2 C 70 % 10.73 C
228 24-04-2019 18:55:00 15.8 C 72 % 10.77 C
229 24-04-2019 19:00:00 15.6 C 75 % 11.19 C
230 24-04-2019 19:05:00 15.1 C 76 % 10.9 C
231 24-04-2019 19:10:00 14.7 C 77 % 10.71 C
232 24-04-2019 19:15:00 14.1 C 81 % 10.89 C
233 24-04-2019 19:20:00 13.7 C 81 % 10.5 C
234 24-04-2019 19:25:00 13.5 C 81 % 10.31 C
235 24-04-2019 19:30:00 13.4 C 78 % 9.65 C
236 24-04-2019 19:35:00 13.3 C 76 % 9.16 C
237 24-04-2019 19:40:00 13.3 C 76 % 9.16 C
238 24-04-2019 19:45:00 13.3 C 76 % 9.16 C
239 24-04-2019 19:50:00 13.3 C 74 % 8.77 C
240 24-04-2019 19:55:00 13.2 C 75 % 8.87 C
241 24-04-2019 20:00:00 13 C 77 % 9.07 C
242 24-04-2019 20:05:00 12.5 C 80 % 9.15 C
243 24-04-2019 20:10:00 12.1 C 83 % 9.3 C
244 24-04-2019 20:15:00 11.7 C 85 % 9.27 C
245 24-04-2019 20:20:00 11.4 C 86 % 9.14 C
246 24-04-2019 20:25:00 11.2 C 87 % 9.12 C
247 24-04-2019 20:30:00 11.1 C 88 % 9.19 C
248 24-04-2019 20:35:00 10.9 C 88 % 8.99 C
249 24-04-2019 20:40:00 10.7 C 89 % 8.96 C
250 24-04-2019 20:45:00 10.6 C 89 % 8.86 C
Sensor: Nr:Datum:Temp:Feuchte:Taupunkt:
Aussen-T/F 251 24-04-2019 20:50:00 10.5 C 90 % 8.93 C
252 24-04-2019 20:55:00 10.4 C 90 % 8.83 C
253 24-04-2019 21:00:00 10.3 C 90 % 8.73 C
254 24-04-2019 21:05:00 10.2 C 91 % 8.8 C
255 24-04-2019 21:10:00 10.1 C 91 % 8.7 C
256 24-04-2019 21:15:00 10 C 91 % 8.6 C
257 24-04-2019 21:20:00 9.8 C 91 % 8.4 C
258 24-04-2019 21:25:00 9.8 C 92 % 8.56 C
259 24-04-2019 21:30:00 9.8 C 92 % 8.56 C
260 24-04-2019 21:35:00 9.7 C 92 % 8.46 C
261 24-04-2019 21:40:00 9.7 C 93 % 8.62 C
262 24-04-2019 21:45:00 9.6 C 93 % 8.53 C
263 24-04-2019 21:50:00 9.6 C 93 % 8.53 C
264 24-04-2019 21:55:00 9.6 C 93 % 8.53 C
265 24-04-2019 22:00:00 9.4 C 93 % 8.33 C
266 24-04-2019 22:05:00 9.4 C 93 % 8.33 C
267 24-04-2019 22:10:00 9.3 C 93 % 8.23 C
268 24-04-2019 22:15:00 9.3 C 93 % 8.23 C
269 24-04-2019 22:20:00 9.2 C 93 % 8.13 C
270 24-04-2019 22:25:00 9.2 C 93 % 8.13 C
271 24-04-2019 22:30:00 9.1 C 94 % 8.19 C
272 24-04-2019 22:35:00 9.1 C 94 % 8.19 C
273 24-04-2019 22:40:00 9.1 C 94 % 8.19 C
274 24-04-2019 22:45:00 9.1 C 94 % 8.19 C
275 24-04-2019 22:50:00 8.9 C 94 % 7.99 C
Sensor: Nr:Datum:Temp:Feuchte:Taupunkt:
Aussen-T/F 276 24-04-2019 22:55:00 8.9 C 94 % 7.99 C
277 24-04-2019 23:00:00 8.8 C 94 % 7.89 C
278 24-04-2019 23:05:00 8.8 C 94 % 7.89 C
279 24-04-2019 23:10:00 8.9 C 95 % 8.14 C
280 24-04-2019 23:15:00 8.9 C 95 % 8.14 C
281 24-04-2019 23:20:00 9 C 95 % 8.24 C
282 24-04-2019 23:25:00 9.1 C 95 % 8.34 C
283 24-04-2019 23:30:00 9.1 C 95 % 8.34 C
284 24-04-2019 23:35:00 9.1 C 95 % 8.34 C
285 24-04-2019 23:40:00 9.1 C 95 % 8.34 C
286 24-04-2019 23:45:00 9.1 C 95 % 8.34 C
287 24-04-2019 23:50:00 9.1 C 95 % 8.34 C
288 24-04-2019 23:55:00 9.1 C 95 % 8.34 C

Legende:
   Min
   Max


Maximal/Minimal-Werte vom 24.04.2019 - 24.04.2019

Sensor Min Max Avg
Temp
(Aussen-T/F)
8.8 °C
24-04-2019  23:00:00
26.6 °C
24-04-2019  17:05:00
15.11 °C
Feuchte
(Aussen-T/F)
35 %
24-04-2019  16:10:00
95 %
24-04-2019  23:10:00
73.1 %
Taupunkt
(Aussen-T/F)
7.65 C
24-04-2019  05:35:00
12.9 C
24-04-2019  11:30:00
9.52 C

Die Daten stammen von einer Davis Vantage Pro 2 Wetter-Station und werden unter Linux mit der Software wview2wettercgi und aufbereitet. Alle Angaben erfolgen ohne Gewähr für ihre Vollständigkeit oder Richtigkeit.
Kontakt: Rainer Krienke krienke@uni-koblenz.de . Meine Webseiten an der Uni Koblenz oder privat.
Version: $Revision: 0.78 $